Regional Weather Roundup
Issued by NWS

Home | Current Version | Previous Version | Text Only | Print | Product List | Glossary On
Versions: 1 2 3 4 5 6 7 8 9 10 11 12 13 14 15 16 17 18 19 20 21 22 23 24 25 26 27
000
ASCA42 TJSJ 290810
RWRPR
PUERTO RICO/U.S. VIRGIN ISLANDS HOURLY WEATHER ROUNDUP
NATIONAL WEATHER SERVICE SAN JUAN PR
400 AM AST FRI APR 29 2016

PRZ001-004-290900-
PUERTO RICO

CITY           SKY/WX    TMP DP  RH WIND       PRES   REMARKS
SAN JUAN LMM   PTCLDY    79  75  89 CALM      29.89F
PONCE          CLOUDY    75  75 100 NE6       29.90S
CEIBA          CLEAR     79  73  83 CALM      29.92F
$$

PRZ006-007-290900-
U.S. VIRGIN ISLANDS

CITY           SKY/WX    TMP DP  RH WIND       PRES   REMARKS
CHARLOTTE AMA  MOCLDY    81  75  83 E6        29.90S
CHRISTIANSTED  MOCLDY    77  75  94 CALM      29.91S
$$

HOURLY WEATHER ROUNDUP FOR THE NEWS MEDIA

CITY           SKY/WX    TMP DP  RH WIND       PRES   REMARKS
ORLANDO        CLEAR     72  69  90 S3        29.97S
NEW YORK       CLOUDY    49  38  65 NE6       30.07R
NEWARK         CLOUDY    50  38  63 E7        30.05R
CHICAGO        LGT RAIN  42  41  96 N8        30.00F FOG
HARTFORD       CLOUDY    45  36  70 E6        30.12R
BOSTON         CLOUDY    44  36  73 SE7       30.13R
DALLAS         MOCLDY    72  66  81 SE9       29.73F
PHILADELPHIA   CLOUDY    46  40  79 NE8       30.05R
LOS ANGELES    PTCLDY    58  51  78 E8        29.97S
WASHINGTON DC  CLOUDY    46  44  93 NE6       30.00S FOG



USA.gov is the U.S. government's official web portal to all federal, state and local government web resources and services.